CMP787 MPTO-MROC

Flight info

Callsign CMP787
Flight time 1h 31m
Altitude 36000
Route SIMAN3A SIMAN DCT PUDOS DCT ISEBA CUARE3I
Aircraft B738/M-SDE2E3FGHIRWXY/LB1

Departure

Time 2026-04-29 22:53
Airport Tocumen International Airport (MPTO)

Arrival

Time 2026-04-30 00:24
Airport Juan Santamaría International Airport (MROC)
Time Latitude Longitude Altitude Speed Heading
2026-04-29 22:10 9.06084 -79.39228 57 ft 0 kts 120°
2026-04-29 22:16 9.06087 -79.39233 29 ft 2 kts 121°
2026-04-29 22:16 9.06099 -79.39243 29 ft 2 kts 202°
2026-04-29 22:16 9.06103 -79.39242 29 ft 0 kts 206°
2026-04-29 22:32 9.06098 -79.39244 29 ft 4 kts 207°
2026-04-29 22:32 9.06032 -79.39279 29 ft 15 kts 206°
2026-04-29 22:32 9.05983 -79.39277 29 ft 6 kts 145°
2026-04-29 22:33 9.05949 -79.39235 29 ft 10 kts 119°
2026-04-29 22:33 9.05911 -79.39163 29 ft 13 kts 119°
2026-04-29 22:33 9.05848 -79.39111 29 ft 12 kts 180°
2026-04-29 22:33 9.05770 -79.39144 29 ft 12 kts 204°
2026-04-29 22:34 9.05699 -79.39120 29 ft 12 kts 121°
2026-04-29 22:34 9.05664 -79.39048 29 ft 11 kts 117°
2026-04-29 22:34 9.05618 -79.38985 29 ft 11 kts 151°
2026-04-29 22:34 9.05547 -79.38996 29 ft 11 kts 209°
2026-04-29 22:35 9.05483 -79.39033 29 ft 10 kts 210°
2026-04-29 22:35 9.05420 -79.39069 29 ft 10 kts 210°
2026-04-29 22:35 9.05360 -79.39104 29 ft 10 kts 210°
2026-04-29 22:35 9.05301 -79.39138 29 ft 10 kts 209°
2026-04-29 22:36 9.05243 -79.39171 29 ft 10 kts 209°
2026-04-29 22:36 9.05080 -79.39264 29 ft 30 kts 210°
2026-04-29 22:36 9.04912 -79.39360 29 ft 25 kts 209°
2026-04-29 22:36 9.04836 -79.39365 29 ft 7 kts 137°
2026-04-29 22:37 9.04813 -79.39333 30 ft 0 kts 121°
2026-04-29 22:44 9.04799 -79.39310 29 ft 11 kts 122°
2026-04-29 22:45 9.04794 -79.39249 30 ft 13 kts 64°
2026-04-29 22:45 9.04912 -79.39175 31 ft 0 kts 30°
2026-04-29 22:52 9.04994 -79.39127 31 ft 41 kts 29°
2026-04-29 22:52 9.05435 -79.38878 29 ft 102 kts 29°
2026-04-29 22:52 9.06209 -79.38439 31 ft 151 kts 28°
2026-04-29 22:52 9.07220 -79.37853 167 ft 178 kts 29°
2026-04-29 22:53 9.08291 -79.37251 800 ft 172 kts 25°
2026-04-29 22:53 9.09320 -79.36712 1519 ft 159 kts 27°
2026-04-29 22:53 9.10252 -79.36158 2110 ft 157 kts 27°
2026-04-29 22:53 9.11268 -79.35569 2257 ft 178 kts 27°
2026-04-29 22:54 9.12411 -79.34918 2483 ft 198 kts 27°
2026-04-29 22:54 9.13653 -79.34211 2644 ft 213 kts 27°
2026-04-29 22:54 9.14987 -79.33450 2835 ft 225 kts 28°
2026-04-29 22:54 9.16356 -79.32669 3233 ft 227 kts 27°
2026-04-29 22:55 9.17735 -79.31883 3479 ft 234 kts 28°
2026-04-29 22:55 9.19189 -79.31054 3746 ft 239 kts 28°
2026-04-29 22:55 9.20592 -79.30296 4337 ft 229 kts 20°
2026-04-29 22:55 9.22187 -79.30142 4630 ft 237 kts 351°
2026-04-29 22:56 9.23698 -79.30823 4984 ft 243 kts 325°
2026-04-29 22:56 9.24732 -79.32183 5016 ft 250 kts 296°
2026-04-29 22:56 9.25259 -79.33887 5041 ft 258 kts 286°
2026-04-29 22:56 9.25640 -79.35664 5025 ft 257 kts 284°
2026-04-29 22:57 9.25983 -79.37424 5013 ft 253 kts 284°
2026-04-29 22:57 9.26326 -79.39163 5022 ft 251 kts 284°
2026-04-29 22:57 9.26670 -79.40892 5017 ft 249 kts 284°
2026-04-29 22:57 9.27015 -79.42625 5011 ft 254 kts 284°
2026-04-29 22:58 9.27372 -79.44387 5030 ft 256 kts 285°
2026-04-29 22:58 9.27737 -79.46142 5036 ft 254 kts 285°
2026-04-29 22:58 9.28105 -79.47894 5030 ft 254 kts 285°
2026-04-29 22:58 9.28470 -79.49635 5018 ft 252 kts 284°
2026-04-29 22:59 9.28832 -79.51364 5115 ft 251 kts 285°
2026-04-29 22:59 9.29196 -79.53092 5375 ft 256 kts 285°
2026-04-29 22:59 9.29568 -79.54854 5785 ft 256 kts 285°
2026-04-29 22:59 9.29947 -79.56642 6055 ft 262 kts 285°
2026-04-29 23:00 9.30327 -79.58445 6493 ft 261 kts 285°
2026-04-29 23:00 9.30708 -79.60249 6865 ft 264 kts 285°
2026-04-29 23:00 9.31092 -79.62073 7216 ft 265 kts 285°
2026-04-29 23:00 9.31477 -79.63898 7625 ft 265 kts 284°
2026-04-29 23:01 9.31864 -79.65739 7956 ft 269 kts 284°
2026-04-29 23:01 9.32254 -79.67593 8389 ft 269 kts 284°
2026-04-29 23:01 9.32647 -79.69455 8749 ft 272 kts 284°
2026-04-29 23:01 9.33042 -79.71334 9135 ft 273 kts 284°
2026-04-29 23:02 9.33438 -79.73221 9521 ft 275 kts 284°
2026-04-29 23:02 9.33832 -79.75093 9932 ft 275 kts 284°
2026-04-29 23:02 9.34230 -79.76988 10030 ft 275 kts 283°
2026-04-29 23:02 9.34630 -79.78890 10056 ft 277 kts 283°
2026-04-29 23:03 9.35032 -79.80804 10057 ft 277 kts 283°
2026-04-29 23:03 9.35432 -79.82709 10053 ft 275 kts 283°
2026-04-29 23:03 9.35831 -79.84603 10062 ft 274 kts 283°
2026-04-29 23:03 9.36158 -79.86504 10054 ft 275 kts 272°
2026-04-29 23:04 9.36000 -79.87785 10178 ft 277 kts 258°
2026-04-29 23:04 9.35406 -79.90354 10621 ft 282 kts 257°
2026-04-29 23:04 9.34949 -79.92261 10997 ft 283 kts 257°
2026-04-29 23:04 9.34484 -79.94203 11386 ft 284 kts 257°
2026-04-29 23:05 9.34019 -79.96151 11756 ft 285 kts 257°
2026-04-29 23:05 9.33553 -79.98110 12159 ft 286 kts 257°
2026-04-29 23:05 9.33246 -79.99410 12403 ft 287 kts 257°
2026-04-29 23:05 9.32773 -80.01409 12784 ft 289 kts 257°
2026-04-29 23:06 9.32306 -80.03394 13182 ft 290 kts 256°
2026-04-29 23:06 9.31843 -80.05361 13544 ft 292 kts 256°
2026-04-29 23:06 9.31371 -80.07371 13894 ft 294 kts 256°
2026-04-29 23:06 9.30897 -80.09389 14238 ft 295 kts 256°
2026-04-29 23:07 9.30421 -80.11420 14581 ft 297 kts 256°
2026-04-29 23:07 9.29940 -80.13466 14932 ft 299 kts 256°
2026-04-29 23:07 9.29459 -80.15516 15286 ft 300 kts 256°
2026-04-29 23:07 9.28975 -80.17579 15641 ft 302 kts 256°
2026-04-29 23:08 9.28486 -80.19663 15934 ft 308 kts 256°
2026-04-29 23:08 9.27976 -80.21831 15984 ft 325 kts 256°
2026-04-29 23:08 9.27437 -80.24126 16082 ft 343 kts 256°
2026-04-29 23:08 9.26878 -80.26505 16221 ft 360 kts 256°
2026-04-29 23:09 9.26286 -80.29026 16337 ft 376 kts 256°
2026-04-29 23:09 9.25667 -80.31656 16481 ft 390 kts 256°
2026-04-29 23:09 9.25033 -80.34352 16841 ft 396 kts 256°
2026-04-29 23:09 9.24394 -80.37069 17376 ft 396 kts 256°
2026-04-29 23:10 9.23754 -80.39791 17842 ft 399 kts 256°
2026-04-29 23:10 9.23105 -80.42547 18257 ft 403 kts 256°
2026-04-29 23:10 9.22455 -80.45309 18670 ft 404 kts 256°
2026-04-29 23:10 9.21801 -80.48084 19111 ft 405 kts 256°
2026-04-29 23:11 9.21148 -80.50856 19536 ft 406 kts 256°
2026-04-29 23:11 9.20500 -80.53605 19924 ft 408 kts 256°
2026-04-29 23:11 9.19838 -80.56409 20336 ft 410 kts 256°
2026-04-29 23:11 9.19176 -80.59216 20748 ft 411 kts 256°
2026-04-29 23:12 9.18511 -80.62035 21149 ft 412 kts 255°
2026-04-29 23:12 9.17841 -80.64869 21493 ft 415 kts 255°
2026-04-29 23:12 9.17167 -80.67724 21871 ft 417 kts 255°
2026-04-29 23:12 9.16491 -80.70583 22232 ft 419 kts 255°
2026-04-29 23:13 9.15813 -80.73456 22590 ft 421 kts 255°
2026-04-29 23:13 9.15131 -80.76341 22956 ft 422 kts 255°
2026-04-29 23:13 9.14446 -80.79237 23281 ft 424 kts 255°
2026-04-29 23:13 9.13757 -80.82147 23595 ft 426 kts 255°
2026-04-29 23:14 9.13065 -80.85071 23880 ft 427 kts 255°
2026-04-29 23:14 9.12371 -80.88001 24198 ft 428 kts 255°
2026-04-29 23:14 9.11686 -80.90897 24496 ft 429 kts 255°
2026-04-29 23:14 9.10989 -80.93839 24780 ft 430 kts 255°
2026-04-29 23:15 9.10291 -80.96783 25057 ft 431 kts 255°
2026-04-29 23:15 9.09590 -80.99738 25340 ft 433 kts 255°
2026-04-29 23:15 9.09041 -81.02741 25607 ft 435 kts 263°
2026-04-29 23:15 9.08966 -81.05817 25889 ft 438 kts 271°
2026-04-29 23:16 9.09328 -81.08881 26147 ft 442 kts 280°
2026-04-29 23:16 9.10058 -81.11912 26410 ft 444 kts 282°
2026-04-29 23:16 9.10847 -81.14939 26659 ft 445 kts 282°
2026-04-29 23:16 9.11653 -81.17972 26904 ft 447 kts 282°
2026-04-29 23:17 9.12459 -81.21016 27140 ft 448 kts 282°
2026-04-29 23:17 9.13246 -81.24031 27369 ft 449 kts 282°
2026-04-29 23:17 9.14038 -81.27101 27611 ft 451 kts 282°
2026-04-29 23:17 9.14824 -81.30177 27844 ft 452 kts 282°
2026-04-29 23:18 9.15606 -81.33258 28083 ft 453 kts 281°
2026-04-29 23:18 9.16389 -81.36356 28292 ft 454 kts 281°
2026-04-29 23:18 9.17174 -81.39460 28493 ft 456 kts 281°
2026-04-29 23:18 9.17959 -81.42571 28700 ft 457 kts 281°
2026-04-29 23:19 9.18747 -81.45690 28910 ft 458 kts 281°
2026-04-29 23:19 9.19536 -81.48818 29111 ft 459 kts 281°
2026-04-29 23:19 9.20330 -81.51961 29305 ft 461 kts 281°
2026-04-29 23:19 9.21125 -81.55109 29502 ft 462 kts 281°
2026-04-29 23:20 9.21920 -81.58259 29775 ft 461 kts 281°
2026-04-29 23:20 9.22712 -81.61395 30080 ft 459 kts 281°
2026-04-29 23:20 9.23500 -81.64520 30330 ft 458 kts 281°
2026-04-29 23:20 9.24280 -81.67611 30550 ft 458 kts 281°
2026-04-29 23:21 9.25066 -81.70733 30770 ft 458 kts 280°
2026-04-29 23:21 9.25852 -81.73855 31017 ft 457 kts 280°
2026-04-29 23:21 9.26637 -81.76971 31279 ft 456 kts 280°
2026-04-29 23:21 9.27419 -81.80077 31543 ft 455 kts 280°
2026-04-29 23:22 9.28199 -81.83178 31800 ft 454 kts 280°
2026-04-29 23:22 9.28979 -81.86278 32059 ft 454 kts 280°
2026-04-29 23:22 9.29756 -81.89373 32320 ft 453 kts 279°
2026-04-29 23:22 9.30533 -81.92462 32578 ft 452 kts 279°
2026-04-29 23:23 9.31297 -81.95506 32847 ft 451 kts 279°
2026-04-29 23:23 9.32069 -81.98580 33120 ft 450 kts 279°
2026-04-29 23:23 9.32839 -82.01648 33393 ft 449 kts 279°
2026-04-29 23:23 9.33610 -82.04717 33651 ft 449 kts 279°
2026-04-29 23:24 9.34376 -82.07776 33898 ft 448 kts 279°
2026-04-29 23:24 9.35143 -82.10832 34137 ft 447 kts 279°
2026-04-29 23:24 9.35907 -82.13880 34371 ft 446 kts 279°
2026-04-29 23:24 9.36668 -82.16918 34597 ft 445 kts 279°
2026-04-29 23:25 9.37428 -82.19953 34817 ft 444 kts 279°
2026-04-29 23:25 9.38186 -82.22981 35042 ft 443 kts 279°
2026-04-29 23:25 9.38942 -82.26004 35257 ft 442 kts 279°
2026-04-29 23:25 9.39695 -82.29015 35471 ft 441 kts 279°
2026-04-29 23:26 9.40446 -82.32019 35690 ft 440 kts 279°
2026-04-29 23:26 9.41199 -82.35033 35861 ft 440 kts 279°
2026-04-29 23:26 9.42696 -82.41030 35878 ft 442 kts 280°
2026-04-29 23:27 9.44200 -82.47055 35876 ft 440 kts 280°
2026-04-29 23:27 9.45697 -82.53050 35873 ft 437 kts 280°
2026-04-29 23:28 9.47172 -82.58968 35870 ft 430 kts 280°
2026-04-29 23:28 9.48630 -82.64825 35801 ft 429 kts 280°
2026-04-29 23:29 9.49361 -82.67764 35453 ft 428 kts 280°
2026-04-29 23:29 9.50083 -82.70667 35075 ft 424 kts 279°
2026-04-29 23:29 9.50801 -82.73549 34701 ft 420 kts 279°
2026-04-29 23:29 9.51511 -82.76409 34307 ft 418 kts 279°
2026-04-29 23:30 9.52219 -82.79260 33873 ft 416 kts 279°
2026-04-29 23:30 9.52922 -82.82094 33449 ft 414 kts 279°
2026-04-29 23:30 9.53624 -82.84919 33031 ft 412 kts 279°
2026-04-29 23:30 9.54340 -82.87724 32599 ft 411 kts 281°
2026-04-29 23:31 9.55163 -82.90513 32034 ft 414 kts 282°
2026-04-29 23:31 9.56049 -82.93279 31661 ft 411 kts 283°
2026-04-29 23:31 9.56947 -82.96020 31246 ft 409 kts 283°
2026-04-29 23:31 9.57839 -82.98749 30872 ft 407 kts 283°
2026-04-29 23:32 9.58720 -83.01467 30489 ft 405 kts 283°
2026-04-29 23:32 9.59588 -83.04169 30106 ft 403 kts 282°
2026-04-29 23:32 9.60449 -83.06870 29667 ft 402 kts 282°
2026-04-29 23:32 9.61302 -83.09554 29238 ft 399 kts 283°
2026-04-29 23:33 9.62146 -83.12217 28842 ft 395 kts 283°
2026-04-29 23:33 9.62984 -83.14862 28463 ft 392 kts 283°
2026-04-29 23:33 9.63815 -83.17487 28069 ft 390 kts 283°
2026-04-29 23:33 9.64629 -83.20059 27698 ft 387 kts 283°
2026-04-29 23:34 9.65448 -83.22646 27319 ft 384 kts 283°
2026-04-29 23:34 9.66261 -83.25217 26941 ft 381 kts 284°
2026-04-29 23:34 9.67067 -83.27768 26563 ft 379 kts 284°
2026-04-29 23:34 9.67869 -83.30305 26195 ft 376 kts 284°
2026-04-29 23:35 9.68665 -83.32822 25836 ft 373 kts 284°
2026-04-29 23:35 9.69455 -83.35322 25471 ft 371 kts 284°
2026-04-29 23:35 9.70241 -83.37809 25090 ft 369 kts 285°
2026-04-29 23:35 9.71019 -83.40274 24745 ft 366 kts 285°
2026-04-29 23:36 9.71796 -83.42738 24361 ft 366 kts 285°
2026-04-29 23:36 9.72561 -83.45160 23998 ft 365 kts 285°
2026-04-29 23:36 9.73343 -83.47638 23629 ft 364 kts 285°
2026-04-29 23:36 9.74103 -83.50048 23210 ft 363 kts 286°
2026-04-29 23:37 9.74849 -83.52486 22810 ft 361 kts 282°
2026-04-29 23:37 9.75068 -83.54990 22404 ft 356 kts 265°
2026-04-29 23:37 9.74884 -83.57483 22040 ft 353 kts 264°
2026-04-29 23:37 9.74665 -83.59961 21651 ft 352 kts 264°
2026-04-29 23:38 9.74460 -83.62428 21286 ft 350 kts 265°
2026-04-29 23:38 9.74275 -83.64880 20933 ft 348 kts 265°
2026-04-29 23:38 9.74100 -83.67322 20578 ft 346 kts 265°
2026-04-29 23:38 9.73928 -83.69751 20200 ft 345 kts 265°
2026-04-29 23:39 9.73754 -83.72180 19831 ft 345 kts 265°
2026-04-29 23:39 9.73581 -83.74610 19468 ft 348 kts 265°
2026-04-29 23:39 9.73401 -83.77107 19139 ft 363 kts 265°
2026-04-29 23:39 9.73214 -83.79717 18733 ft 375 kts 265°
2026-04-29 23:40 9.73025 -83.82360 18344 ft 376 kts 265°
2026-04-29 23:40 9.72836 -83.84983 18096 ft 371 kts 265°
2026-04-29 23:40 9.72641 -83.87572 17629 ft 374 kts 265°
2026-04-29 23:40 9.72438 -83.90194 17240 ft 373 kts 265°
2026-04-29 23:41 9.72234 -83.92814 16856 ft 372 kts 265°
2026-04-29 23:41 9.72030 -83.95454 16472 ft 371 kts 265°
2026-04-29 23:41 9.71832 -83.98017 16104 ft 369 kts 265°
2026-04-29 23:41 9.71633 -84.00605 15728 ft 366 kts 265°
2026-04-29 23:42 9.71434 -84.03166 15356 ft 362 kts 265°
2026-04-29 23:42 9.71238 -84.05705 14989 ft 359 kts 265°
2026-04-29 23:42 9.71043 -84.08219 14625 ft 356 kts 265°
2026-04-29 23:42 9.70850 -84.10710 14256 ft 354 kts 265°
2026-04-29 23:43 9.70658 -84.13185 13887 ft 352 kts 265°
2026-04-29 23:43 9.70466 -84.15649 13499 ft 349 kts 265°
2026-04-29 23:43 9.70276 -84.18093 13116 ft 346 kts 265°
2026-04-29 23:43 9.70087 -84.20521 12745 ft 343 kts 265°
2026-04-29 23:44 9.70041 -84.22927 12366 ft 341 kts 278°
2026-04-29 23:44 9.70736 -84.25202 12035 ft 337 kts 293°
2026-04-29 23:44 9.71674 -84.27332 11698 ft 334 kts 295°
2026-04-29 23:44 9.72644 -84.29468 11346 ft 332 kts 295°
2026-04-29 23:45 9.73602 -84.31588 11002 ft 329 kts 295°
2026-04-29 23:45 9.74539 -84.33687 10812 ft 322 kts 294°
2026-04-29 23:45 9.75445 -84.35735 10663 ft 314 kts 294°
2026-04-29 23:45 9.76324 -84.37734 10525 ft 307 kts 294°
2026-04-29 23:46 9.77191 -84.39709 10431 ft 306 kts 294°
2026-04-29 23:46 9.78053 -84.41675 10278 ft 303 kts 294°
2026-04-29 23:46 9.79023 -84.43524 10047 ft 295 kts 310°
2026-04-29 23:46 9.80566 -84.44816 9687 ft 283 kts 333°
2026-04-29 23:47 9.82365 -84.45455 9292 ft 266 kts 346°
2026-04-29 23:47 9.84106 -84.45912 8930 ft 252 kts 347°
2026-04-29 23:47 9.85737 -84.46337 8595 ft 239 kts 347°
2026-04-29 23:47 9.87316 -84.46721 8269 ft 226 kts 355°
2026-04-29 23:48 9.88794 -84.46484 8036 ft 208 kts 27°
2026-04-29 23:48 9.89887 -84.45656 7949 ft 187 kts 49°
2026-04-29 23:48 9.90570 -84.44567 7575 ft 188 kts 65°
2026-04-29 23:48 9.91046 -84.43329 7314 ft 184 kts 68°
2026-04-29 23:49 9.91486 -84.42124 7206 ft 183 kts 68°
2026-04-29 23:49 9.91930 -84.40912 7107 ft 181 kts 68°
2026-04-29 23:49 9.92363 -84.39740 7001 ft 184 kts 68°
2026-04-29 23:49 9.92830 -84.38473 7013 ft 192 kts 68°
2026-04-29 23:50 9.93119 -84.37695 6977 ft 189 kts 69°
2026-04-29 23:54 9.93369 -84.37023 6984 ft 185 kts 68°
2026-04-29 23:54 9.93827 -84.35795 6988 ft 187 kts 68°
2026-04-29 23:55 9.93986 -84.35369 6982 ft 188 kts 68°
2026-04-29 23:55 9.94382 -84.34308 6989 ft 188 kts 68°
2026-04-29 23:55 9.94843 -84.33074 6986 ft 185 kts 68°
2026-04-29 23:56 9.95092 -84.32407 6989 ft 182 kts 68°
2026-04-29 23:59 9.95290 -84.31876 6930 ft 179 kts 68°
2026-04-29 23:59 9.95739 -84.30674 6985 ft 192 kts 68°
2026-04-29 23:59 9.96211 -84.29408 6887 ft 188 kts 68°
2026-04-30 00:00 9.96670 -84.28193 6461 ft 181 kts 65°
2026-04-30 00:00 9.97205 -84.27021 5765 ft 186 kts 64°
2026-04-30 00:00 9.97681 -84.25787 4891 ft 199 kts 72°
2026-04-30 00:00 9.98040 -84.24426 4300 ft 195 kts 71°
2026-04-30 00:01 9.98600 -84.23121 3419 ft 211 kts 68°
2026-04-30 00:01 9.99055 -84.21747 2999 ft 195 kts 71°
2026-04-30 00:01 9.99507 -84.20578 3096 ft 164 kts 69°
2026-04-30 00:01 9.99629 -84.20245 3253 ft 154 kts 69°
2026-04-30 00:02 9.99869 -84.19572 3719 ft 130 kts 71°
2026-04-30 00:02 10.00197 -84.18693 3785 ft 143 kts 70°
2026-04-30 00:02 10.00569 -84.17571 3660 ft 190 kts 72°
2026-04-30 00:03 10.01014 -84.16228 4049 ft 208 kts 68°
2026-04-30 00:03 10.01430 -84.14787 4557 ft 220 kts 87°
2026-04-30 00:03 10.01079 -84.13264 5204 ft 232 kts 117°
2026-04-30 00:03 9.99930 -84.12130 6074 ft 235 kts 150°
2026-04-30 00:04 9.98332 -84.11754 6712 ft 253 kts 180°
2026-04-30 00:04 9.96573 -84.12258 7036 ft 279 kts 208°
2026-04-30 00:04 9.95026 -84.13612 7055 ft 312 kts 234°
2026-04-30 00:04 9.94174 -84.15717 7066 ft 337 kts 263°
2026-04-30 00:05 9.94402 -84.18145 7044 ft 356 kts 290°
2026-04-30 00:05 9.95430 -84.20489 7038 ft 370 kts 297°
2026-04-30 00:05 9.96449 -84.22929 7022 ft 384 kts 287°
2026-04-30 00:05 9.96586 -84.25663 7020 ft 396 kts 262°
2026-04-30 00:06 9.95599 -84.28283 7027 ft 404 kts 238°
2026-04-30 00:06 9.93691 -84.30387 7045 ft 409 kts 221°
2026-04-30 00:06 9.91507 -84.32167 7595 ft 396 kts 218°
2026-04-30 00:06 9.89472 -84.33886 8662 ft 369 kts 221°
2026-04-30 00:07 9.87708 -84.35550 10429 ft 322 kts 224°
2026-04-30 00:07 9.86120 -84.37160 11083 ft 328 kts 225°
2026-04-30 00:07 9.84539 -84.38850 11529 ft 332 kts 226°
2026-04-30 00:07 9.82960 -84.40579 11970 ft 335 kts 227°
2026-04-30 00:08 9.81374 -84.42328 12415 ft 337 kts 227°
2026-04-30 00:08 9.79780 -84.44085 12868 ft 339 kts 227°
2026-04-30 00:08 9.77997 -84.45600 13281 ft 340 kts 208°
2026-04-30 00:08 9.75808 -84.46521 13776 ft 340 kts 199°
2026-04-30 00:09 9.73555 -84.47279 14172 ft 341 kts 198°
2026-04-30 00:09 9.71312 -84.48057 14582 ft 341 kts 200°
2026-04-30 00:09 9.69091 -84.48897 15006 ft 341 kts 201°
2026-04-30 00:09 9.66887 -84.49789 15432 ft 340 kts 202°
2026-04-30 00:10 9.64702 -84.50698 15864 ft 339 kts 202°
2026-04-30 00:10 9.62519 -84.51607 16296 ft 338 kts 201°
2026-04-30 00:10 9.60250 -84.52051 16712 ft 338 kts 179°
2026-04-30 00:10 9.57911 -84.51888 17173 ft 336 kts 183°
2026-04-30 00:11 9.55664 -84.52437 17621 ft 333 kts 206°
2026-04-30 00:11 9.53788 -84.53806 17887 ft 336 kts 229°
2026-04-30 00:11 9.52573 -84.55816 18204 ft 338 kts 250°
2026-04-30 00:11 9.52221 -84.58148 18572 ft 336 kts 272°
2026-04-30 00:12 9.52756 -84.60458 18809 ft 339 kts 295°
2026-04-30 00:12 9.54118 -84.62421 18945 ft 348 kts 315°
2026-04-30 00:12 9.56087 -84.63760 18886 ft 341 kts 336°
2026-04-30 00:12 9.58291 -84.64431 18813 ft 321 kts 346°
2026-04-30 00:13 9.60414 -84.64902 18687 ft 304 kts 347°
2026-04-30 00:13 9.62441 -84.65323 18511 ft 290 kts 347°
2026-04-30 00:13 9.64407 -84.65725 18310 ft 285 kts 347°
2026-04-30 00:13 9.66349 -84.66120 18113 ft 286 kts 347°
2026-04-30 00:14 9.68306 -84.66518 17890 ft 285 kts 347°
2026-04-30 00:14 9.70237 -84.66911 17729 ft 281 kts 347°
2026-04-30 00:14 9.72118 -84.67293 17543 ft 278 kts 348°
2026-04-30 00:14 9.74030 -84.67682 17376 ft 283 kts 347°
2026-04-30 00:15 9.75968 -84.68077 17233 ft 284 kts 348°
2026-04-30 00:15 9.77899 -84.68472 17081 ft 282 kts 348°
2026-04-30 00:15 9.79817 -84.68864 16925 ft 281 kts 348°
2026-04-30 00:15 9.81726 -84.69243 16708 ft 278 kts 350°
2026-04-30 00:16 9.83645 -84.69268 16447 ft 275 kts
2026-04-30 00:16 9.85455 -84.68685 16067 ft 275 kts 27°
2026-04-30 00:16 9.87036 -84.67550 15374 ft 284 kts 44°
2026-04-30 00:16 9.88236 -84.65940 14656 ft 289 kts 63°
2026-04-30 00:17 9.88882 -84.64027 14133 ft 285 kts 80°
2026-04-30 00:17 9.89159 -84.62094 13916 ft 269 kts 82°
2026-04-30 00:17 9.89302 -84.61065 13785 ft 263 kts 82°
2026-04-30 00:17 9.89552 -84.59265 13526 ft 253 kts 82°
2026-04-30 00:18 9.89797 -84.57505 13277 ft 253 kts 82°
2026-04-30 00:18 9.90052 -84.55728 13031 ft 256 kts 85°
2026-04-30 00:18 9.90024 -84.53921 12673 ft 260 kts 96°
2026-04-30 00:18 9.89703 -84.52140 12444 ft 253 kts 105°
2026-04-30 00:19 9.89176 -84.50448 12192 ft 250 kts 104°
2026-04-30 00:19 9.89256 -84.48717 11938 ft 249 kts 72°
2026-04-30 00:19 9.89704 -84.47034 11727 ft 247 kts 76°
2026-04-30 00:19 9.90288 -84.45402 11501 ft 245 kts 69°
2026-04-30 00:20 9.90862 -84.43831 11249 ft 236 kts 70°
2026-04-30 00:20 9.91423 -84.42282 10995 ft 226 kts 70°
2026-04-30 00:20 9.91954 -84.40835 10771 ft 218 kts 70°
2026-04-30 00:20 9.92476 -84.39421 10529 ft 210 kts 70°
2026-04-30 00:21 9.92981 -84.38060 10290 ft 203 kts 69°
2026-04-30 00:21 9.93475 -84.36732 9912 ft 203 kts 69°
2026-04-30 00:21 9.94016 -84.35399 9444 ft 199 kts 66°
2026-04-30 00:21 9.94553 -84.34159 9099 ft 185 kts 67°
2026-04-30 00:22 9.95023 -84.32934 8258 ft 194 kts 69°
2026-04-30 00:22 9.95494 -84.31545 7348 ft 212 kts 71°
2026-04-30 00:22 9.95902 -84.30126 6757 ft 207 kts 72°
2026-04-30 00:22 9.96346 -84.28756 6245 ft 200 kts 67°
2026-04-30 00:23 9.96863 -84.27482 5602 ft 198 kts 65°
2026-04-30 00:23 9.97384 -84.26165 4321 ft 217 kts 69°
2026-04-30 00:23 9.97924 -84.24796 3775 ft 204 kts 66°
2026-04-30 00:23 9.98442 -84.23498 3382 ft 191 kts 69°
2026-04-30 00:24 9.98869 -84.22266 3091 ft 177 kts 70°
2026-04-30 00:24 9.99276 -84.21181 3006 ft 149 kts 68°
2026-04-30 00:24 9.99580 -84.20376 3040 ft 66 kts 69°
2026-04-30 00:24 9.99614 -84.20285 3037 ft 0 kts 69°
2026-04-30 00:26 9.99602 -84.20317 3040 ft 0 kts 69°
2026-04-30 00:26 9.99607 -84.20303 3038 ft 8 kts 69°
2026-04-30 00:26 9.99648 -84.20195 3037 ft 22 kts 68°
2026-04-30 00:26 9.99738 -84.20157 3033 ft 10 kts 324°
2026-04-30 00:27 9.99740 -84.20161 3033 ft 1 kts 303°
2026-04-30 00:27 9.99741 -84.20163 3033 ft 0 kts 293°
2026-04-30 00:27 9.99741 -84.20165 3034 ft 0 kts 291°
2026-04-30 00:27 9.99742 -84.20167 3034 ft 1 kts 289°
2026-04-30 00:28 9.99752 -84.20227 3034 ft 0 kts 296°
2026-04-30 00:28 9.99753 -84.20227 3034 ft 0 kts 300°
2026-04-30 00:28 9.99755 -84.20227 3035 ft 0 kts 328°
2026-04-30 00:28 9.99762 -84.20230 3034 ft 0 kts 335°